TimeCST,TemperatureF,Dew PointF,Humidity,Sea Level PressureIn,VisibilityMPH,Wind Direction,Wind SpeedMPH,Gust SpeedMPH,PrecipitationIn,Events,Conditions,WindDirDegrees,DateUTC
12:15 AM,30.9,18.9,61,30.19,10.0,West,15.0,-,N/A,,Clear,270,2013-01-09 06:15:00
12:35 AM,31.6,18.9,59,30.19,10.0,West,13.8,-,N/A,,Clear,280,2013-01-09 06:35:00
12:55 AM,31.3,18.7,60,30.19,10.0,WNW,15.0,-,N/A,,Clear,290,2013-01-09 06:55:00
1:15 AM,32.9,18.5,55,30.20,10.0,WNW,13.8,-,N/A,,Clear,290,2013-01-09 07:15:00
1:35 AM,31.5,18.3,58,30.20,10.0,WNW,12.7,-,N/A,,Clear,300,2013-01-09 07:35:00
1:55 AM,30.0,18.3,62,30.20,10.0,WNW,11.5,-,N/A,,Clear,290,2013-01-09 07:55:00
2:15 AM,27.0,17.2,67,30.20,10.0,NW,6.9,-,N/A,,Clear,310,2013-01-09 08:15:00
2:35 AM,25.5,17.1,70,30.21,10.0,West,5.8,-,N/A,,Clear,280,2013-01-09 08:35:00
2:55 AM,24.3,16.7,73,30.20,10.0,WSW,9.2,-,N/A,,Clear,250,2013-01-09 08:55:00
3:15 AM,25.7,16.9,69,30.20,10.0,West,12.7,-,N/A,,Clear,260,2013-01-09 09:15:00
3:35 AM,23.9,16.3,73,30.21,10.0,WSW,10.4,-,N/A,,Clear,250,2013-01-09 09:35:00
3:55 AM,25.3,16.3,69,30.21,10.0,WSW,9.2,-,N/A,,Clear,250,2013-01-09 09:55:00
4:15 AM,24.3,16.5,72,30.20,10.0,West,11.5,-,N/A,,Clear,270,2013-01-09 10:15:00
4:35 AM,25.0,16.7,71,30.20,10.0,West,9.2,-,N/A,,Clear,270,2013-01-09 10:35:00
4:55 AM,25.3,17.1,71,30.19,10.0,West,10.4,-,N/A,,Clear,260,2013-01-09 10:55:00
5:15 AM,29.1,17.4,62,30.18,10.0,WSW,11.5,-,N/A,,Clear,250,2013-01-09 11:15:00
5:35 AM,27.3,17.2,66,30.18,10.0,West,10.4,-,N/A,,Clear,280,2013-01-09 11:35:00
5:55 AM,28.9,18.0,64,30.16,10.0,WNW,16.1,-,N/A,,Clear,290,2013-01-09 11:55:00
6:15 AM,29.8,17.4,60,30.17,10.0,WNW,12.7,-,N/A,,Clear,290,2013-01-09 12:15:00
6:35 AM,29.3,18.3,64,30.17,10.0,West,11.5,-,N/A,,Clear,280,2013-01-09 12:35:00
6:55 AM,27.5,18.1,68,30.18,10.0,WSW,10.4,-,N/A,,Clear,250,2013-01-09 12:55:00
7:15 AM,30.2,19.2,64,30.19,10.0,West,5.8,-,N/A,,Clear,270,2013-01-09 13:15:00
7:35 AM,30.6,19.2,63,30.20,10.0,SSE,4.6,-,N/A,,Clear,160,2013-01-09 13:35:00
7:55 AM,30.4,19.0,63,30.21,10.0,West,10.4,-,N/A,,Clear,260,2013-01-09 13:55:00
8:35 AM,30.7,18.5,60,30.22,10.0,WSW,8.1,-,N/A,,Clear,240,2013-01-09 14:35:00
8:55 AM,27.9,18.3,67,30.23,10.0,SSW,4.6,-,N/A,,Clear,200,2013-01-09 14:55:00
9:15 AM,31.1,18.9,61,30.24,10.0,SSW,11.5,-,N/A,,Clear,210,2013-01-09 15:15:00
9:35 AM,33.4,19.9,58,30.24,10.0,SSW,11.5,-,N/A,,Clear,200,2013-01-09 15:35:00
9:55 AM,36.5,20.5,52,30.26,10.0,South,9.2,-,N/A,,Clear,180,2013-01-09 15:55:00
10:15 AM,39.4,21.0,48,30.25,10.0,South,9.2,-,N/A,,Clear,190,2013-01-09 16:15:00
10:35 AM,42.6,20.3,41,30.25,10.0,South,16.1,-,N/A,,Clear,180,2013-01-09 16:35:00
10:55 AM,44.1,19.8,38,30.25,10.0,SSW,13.8,20.7,N/A,,Clear,200,2013-01-09 16:55:00
11:15 AM,45.1,18.7,35,30.26,10.0,South,17.3,-,N/A,,Clear,190,2013-01-09 17:15:00
11:55 AM,46.4,17.4,31,30.23,10.0,SSW,18.4,23.0,N/A,,Clear,210,2013-01-09 17:55:00
12:15 PM,48.9,17.6,29,30.22,10.0,SSW,17.3,23.0,N/A,,Clear,200,2013-01-09 18:15:00
12:35 PM,50.5,17.1,27,30.21,10.0,SSW,21.9,-,N/A,,Clear,210,2013-01-09 18:35:00
12:55 PM,51.1,16.3,25,30.20,10.0,SSW,19.6,25.3,N/A,,Clear,200,2013-01-09 18:55:00
1:15 PM,51.1,17.4,26,30.18,10.0,SSW,16.1,-,N/A,,Clear,200,2013-01-09 19:15:00
1:35 PM,52.7,16.0,23,30.17,10.0,SSW,20.7,24.2,N/A,,Clear,210,2013-01-09 19:35:00
1:55 PM,53.2,16.5,24,30.17,10.0,SSW,16.1,21.9,N/A,,Clear,200,2013-01-09 19:55:00
2:15 PM,52.7,16.3,24,30.16,10.0,SSW,18.4,21.9,N/A,,Clear,200,2013-01-09 20:15:00
2:35 PM,53.2,16.7,24,30.16,10.0,South,16.1,23.0,N/A,,Clear,190,2013-01-09 20:35:00
2:55 PM,54.0,16.5,23,30.15,10.0,South,15.0,-,N/A,,Clear,190,2013-01-09 20:55:00
3:15 PM,54.1,16.5,23,30.14,10.0,South,17.3,21.9,N/A,,Clear,190,2013-01-09 21:15:00
3:35 PM,54.5,18.1,24,30.13,10.0,SSW,15.0,20.7,N/A,,Clear,200,2013-01-09 21:35:00
3:55 PM,54.1,19.0,25,30.13,10.0,South,15.0,-,N/A,,Clear,190,2013-01-09 21:55:00
4:15 PM,54.5,19.4,25,30.12,10.0,South,11.5,-,N/A,,Clear,180,2013-01-09 22:15:00
4:35 PM,54.0,18.7,25,30.11,10.0,South,13.8,-,N/A,,Clear,170,2013-01-09 22:35:00
4:55 PM,52.5,19.2,27,30.10,10.0,South,13.8,17.3,N/A,,Clear,170,2013-01-09 22:55:00
5:15 PM,47.7,25.2,41,30.10,10.0,SSE,13.8,-,N/A,,Clear,150,2013-01-09 23:15:00
5:35 PM,43.9,25.7,49,30.10,10.0,SSE,13.8,-,N/A,,Clear,160,2013-01-09 23:35:00
5:55 PM,39.7,25.2,56,30.10,10.0,SE,11.5,-,N/A,,Clear,140,2013-01-09 23:55:00
6:15 PM,37.8,24.6,59,30.09,10.0,SSE,10.4,-,N/A,,Clear,150,2013-01-10 00:15:00
6:35 PM,37.4,24.4,60,30.08,10.0,SSE,8.1,-,N/A,,Clear,160,2013-01-10 00:35:00
6:55 PM,37.2,24.6,60,30.08,10.0,SSE,9.2,-,N/A,,Clear,160,2013-01-10 00:55:00
7:15 PM,35.6,24.6,64,30.08,10.0,SSE,11.5,-,N/A,,Clear,160,2013-01-10 01:15:00
7:35 PM,34.0,24.6,69,30.08,10.0,SSE,9.2,-,N/A,,Clear,160,2013-01-10 01:35:00
7:55 PM,32.5,23.9,70,30.06,10.0,SSE,8.1,-,N/A,,Clear,160,2013-01-10 01:55:00
8:15 PM,32.4,23.9,71,30.06,10.0,SSE,9.2,-,N/A,,Clear,160,2013-01-10 02:15:00
8:35 PM,32.2,23.9,72,30.05,10.0,South,10.4,-,N/A,,Clear,170,2013-01-10 02:35:00
8:55 PM,32.4,23.9,71,30.05,10.0,South,11.5,-,N/A,,Clear,170,2013-01-10 02:55:00
9:15 PM,32.2,23.4,70,30.05,10.0,South,10.4,-,N/A,,Clear,170,2013-01-10 03:15:00
9:35 PM,31.6,23.0,70,30.05,10.0,South,6.9,-,N/A,,Clear,170,2013-01-10 03:35:00
9:55 PM,31.1,23.5,74,30.04,10.0,South,11.5,-,N/A,,Clear,170,2013-01-10 03:55:00
10:15 PM,31.5,22.8,70,30.02,10.0,South,11.5,-,N/A,,Clear,180,2013-01-10 04:15:00
10:35 PM,29.8,22.1,73,30.02,10.0,South,6.9,-,N/A,,Clear,180,2013-01-10 04:35:00
10:55 PM,30.0,21.7,71,30.02,10.0,South,6.9,-,N/A,,Clear,180,2013-01-10 04:55:00
11:15 PM,30.7,21.7,69,30.01,10.0,South,12.7,-,N/A,,Clear,180,2013-01-10 05:15:00
11:35 PM,31.1,21.2,67,30.01,10.0,South,13.8,-,N/A,,Clear,180,2013-01-10 05:35:00
11:55 PM,31.1,21.0,66,30.01,10.0,South,13.8,-,N/A,,Clear,170,2013-01-10 05:55:00